STARLINK-30586, 58084

Orbit data source: Space-Track

STARLINK-30586, 58084 is a payload satellite owned by SpaceX/Seattle (US) in LEO that was launched on Wed, 18 Oct 2023 UTC via an FALCON 9 launch vehicle from the Air Force Eastern Test Range (AFETR). Payload-class satellites include a variety of spacecraft equipped with specific instruments for various scientific and technological missions. These include communications satellites like Starlink; space stations such as the ISS; scientific satellites like the Hubble; Earth observation satellites from companies like Planet Labs, Umbra, and HawkEye 360; GPS; miniature CubeSats for education and research; and military/defense satellites.

Loading next visibility...
Identifier
58084, 2023-160K
Orbit
LEO
Country
Flag of USUS
Related business
Manufacturer
SpaceX/Seattle
Mission
Operational Commercial Communications
Bus & Motor
STARLINK V2M, Unknown motor
Mass
730 kg wet, ~700 kg dry
Launch date (UTC)
2023-10-18 (3 years ago)
Launch vehicle
FALCON 9
Launch site
Air Force Eastern Test Range (AFETR)
Object type
Payload
Rocket body
Debris
Shape & HBR
Box + 2 Pan, 17.7 m
Radar Cross Section
33.884 m², Large (>1 m²)

Expand to show TLE details & history
Last TLE update: 3 days ago

TLE from 3 days ago
0 STARLINK-30586
1 58084U 23160K   26170.22144303  .00000466  00000-0  26479-4 0  9990
2 58084  43.0056 227.9058 0002014 273.3872  86.6749 15.27575228148431
Epoch: 2026-06-19T05:18Z
TLE epoch observation values (Epoch: 2026-06-19T05:18:52.677Z)
Latitude
-0.00005°
Longitude
-119.26727°
Altitude
482.76 km
Speed
7.626 km/s
True Right ascension
15h 11m 37s
True Declination
0° 00' 00"
Sunlit
Object was in full shadow at epoch
Visualization orbit readout
Latitude
Unknown
Longitude
Unknown
Altitude
Unknown
Speed
Unknown
Apparent Right ascension
Unknown
Apparent Declination
Unknown
Sunlit
N/A
Visualization observer readout
Local Sidereal Time
00:29:41
Azimuth
Unknown
Elevation
Unknown
Doppler factor
Unknown
Orbital elements
Apogee altitude
486.39 km
Perigee altitude
483.625 km
Semi-major axis
6,863.145 km
Eccentricity
0.0002
Inclination
43.0056°
RAAN
227.9058°
Arg. of periapsis
273.3872°
True anomaly
86.69794°
Mean anomaly
86.6749°
Eccentric anomaly
86.68642°
Mean motion
3.81732 °/min
Orbital period
94.31 mins
BSTAR
0.000026479
Loading maneuver chart data...
Computing Atmospheric mass density...
Loading historical data...
Loading historical data...
Loading historical data...
Loading historical data...
Loading historical data...
Loading historical data...
Loading historical data...

Documentation

Showing up to 5 results
|